Weather History for KILN - December, 2013

Change the Weather History Date:

Sunday, December 22, 2013

  Actual Average (KDAY) Record (KDAY)
Temperature  
Mean Temperature 52 °F 29 °F  
Max Temperature 61 °F 36 °F 62 °F (1941)
Min Temperature 39 °F 23 °F -20 °F (1989)
Degree Days  
Heating Degree Days 13 36  
Month to date heating degree days 719  
Since 1 July heating degree days 1830  
Cooling Degree Days 0 0  
Month to date cooling degree days 0  
Year to date cooling degree days 891  
Growing Degree Days 2 (Base 50)    
Moisture  
Dew Point 49 °F    
Average Humidity 86    
Maximum Humidity 96    
Minimum Humidity 71    
Precipitation  
Precipitation 0.47 in 0.11 in 1.34 in (1981)
Month to date precipitation 2.20  
Year to date precipitation 40.13  
Snow  
Snow 0.00 in 0.20 in 13.40 in (1981)
Month to date snowfall 2.8  
Since 1 July snowfall 3.8  
Snow Depth -    
Sea Level Pressure  
Sea Level Pressure 29.79 in    
Wind  
Wind Speed 19 mph (SW)    
Max Wind Speed 28 mph    
Max Gust Speed 38 mph    
Visibility 8 miles    
Events Rain    
T = Trace of Precipitation, MM = Missing Value Source: NWS Daily Summary

Daily Weather History Graph

Daily Weather History Graph

Search for Another Location

Airport or City:

Trip Planner

Search our weather history database for the weather conditions in past years. The results will help you decide how hot, cold, wet, or windy it might be!

Date:

Astronomy

Dec. 22, 2013 Rise Set
Actual Time 7:52 AM EST 5:15 PM EST
Civil Twilight 7:22 AM EST 5:45 PM EST
Nautical Twilight 6:48 AM EST 6:19 PM EST
Astronomical Twilight 6:15 AM EST 6:52 PM EST
Moon 10:26 PM EST (12/22) 10:49 AM EST (12/22)
Length of Visible Light 10h 23m
Length of Day
9h 23m
Waning Gibbous, 77% of the Moon is Illuminated
Dec 22
Waning Gibbous
Dec 25
Last Quarter
Jan 1
New
Jan 7
First Quarter
Jan 15
Full

Hourly Weather History & Observations

Time (EST) Temp. Windchill Dew Point Humidity Pressure Visibility Wind Dir Wind Speed Gust Speed Precip Events Conditions
12:03 AM 61.0 °F - 59.0 °F 93% 29.57 in 4.0 mi WSW 20.7 mph 29.9 mph 0.05 in Rain Rain
12:54 AM 61.0 °F - 59.0 °F 93% 29.61 in 8.0 mi SW 21.9 mph 31.1 mph 0.15 in Rain Rain
1:12 AM 61.0 °F - 59.0 °F 93% 29.63 in 8.0 mi SW 23.0 mph 26.5 mph 0.02 in Rain Rain
1:41 AM 60.1 °F - 59.0 °F 96% 29.65 in 6.0 mi SW 15.0 mph 24.2 mph 0.07 in Rain Rain
1:54 AM 60.1 °F - 59.0 °F 96% 29.65 in 6.0 mi South 11.5 mph - 0.10 in Rain Rain
2:54 AM 59.0 °F - 57.9 °F 96% 29.64 in 8.0 mi South 18.4 mph 25.3 mph 0.07 in Rain Light Rain
3:54 AM 59.0 °F - 57.0 °F 93% 29.63 in 10.0 mi South 20.7 mph 28.8 mph 0.04 in Rain Light Rain
4:54 AM 59.0 °F - 55.9 °F 90% 29.60 in 8.0 mi South 25.3 mph 33.4 mph 0.03 in Rain Light Rain
5:54 AM 59.0 °F - 55.0 °F 87% 29.58 in 10.0 mi SSW 21.9 mph 38.0 mph 0.02 in   Mostly Cloudy
6:54 AM 59.0 °F - 54.0 °F 83% 29.63 in 10.0 mi SSW 24.2 mph 28.8 mph 0.00 in   Overcast
7:54 AM 57.9 °F - 55.0 °F 90% 29.69 in 4.0 mi SSW 20.7 mph 27.6 mph 0.00 in Rain Light Rain
8:09 AM 57.0 °F - 55.9 °F 96% 29.69 in 3.0 mi WSW 15.0 mph 27.6 mph 0.02 in Rain Rain
8:11 AM 57.0 °F - 55.9 °F 96% 29.70 in 2.5 mi WSW 23.0 mph 31.1 mph 0.04 in Rain Heavy Rain
8:17 AM 57.0 °F - 55.0 °F 93% 29.71 in 3.0 mi WSW 25.3 mph 32.2 mph 0.05 in Rain Light Rain
8:54 AM 55.9 °F - 53.1 °F 90% 29.73 in 7.0 mi SW 20.7 mph 32.2 mph 0.06 in Rain Light Rain
9:05 AM 55.9 °F - 52.0 °F 87% 29.72 in 10.0 mi SW 24.2 mph - 0.00 in   Overcast
9:54 AM 55.9 °F - 52.0 °F 87% 29.76 in 10.0 mi SW 16.1 mph 26.5 mph 0.00 in   Overcast
10:54 AM 55.9 °F - 50.0 °F 80% 29.78 in 10.0 mi SW 24.2 mph 28.8 mph N/A   Clear
11:54 AM 55.9 °F - 46.9 °F 72% 29.83 in 10.0 mi SW 27.6 mph 32.2 mph N/A   Clear
12:54 PM 54.0 °F - 46.0 °F 75% 29.83 in 10.0 mi WSW 17.3 mph - N/A   Partly Cloudy
1:54 PM 53.1 °F - 45.0 °F 74% 29.84 in 10.0 mi SW 13.8 mph 24.2 mph N/A   Clear
2:54 PM 52.0 °F - 43.0 °F 71% 29.85 in 10.0 mi SW 16.1 mph - N/A   Clear
3:54 PM 52.0 °F - 43.0 °F 71% 29.88 in 10.0 mi WSW 17.3 mph - N/A   Clear
4:54 PM 50.0 °F - 42.1 °F 74% 29.89 in 10.0 mi WSW 16.1 mph - N/A   Clear
5:43 PM 48.9 °F - 42.1 °F 77% 29.91 in 10.0 mi WSW 16.1 mph - N/A   Mostly Cloudy
5:54 PM 48.9 °F - 42.1 °F 77% 29.93 in 10.0 mi West 15.0 mph - N/A   Overcast
6:44 PM 46.0 °F 42.5 °F 39.9 °F 79% 29.92 in 10.0 mi WSW 6.9 mph - N/A   Scattered Clouds
6:54 PM 45.0 °F 40.6 °F 41.0 °F 86% 29.96 in 10.0 mi SW 8.1 mph - N/A   Partly Cloudy
7:18 PM 46.0 °F 41.9 °F 41.0 °F 83% 29.93 in 10.0 mi SW 8.1 mph - N/A   Mostly Cloudy
7:54 PM 46.0 °F 42.5 °F 42.1 °F 86% 29.96 in 10.0 mi SW 6.9 mph - N/A   Overcast
8:54 PM 46.9 °F - 42.1 °F 83% 29.97 in 10.0 mi WSW 11.5 mph - N/A   Overcast
9:26 PM 46.0 °F 40.2 °F 42.1 °F 86% 29.96 in 10.0 mi West 12.7 mph - N/A   Overcast
9:35 PM 44.1 °F 36.5 °F 41.0 °F 89% 29.95 in 10.0 mi NW 17.3 mph 24.2 mph N/A   Overcast
9:54 PM 43.0 °F 35.7 °F 39.9 °F 89% 30.00 in 10.0 mi WNW 15.0 mph 20.7 mph N/A   Overcast
11:54 PM 39.9 °F 32.9 °F 37.0 °F 89% 30.05 in 10.0 mi WNW 11.5 mph - N/A   Overcast